CST,Max TemperatureF,Mean TemperatureF,Min TemperatureF,Max Dew PointF,MeanDew PointF,Min DewpointF,Max Humidity, Mean Humidity, Min Humidity, Max Sea Level PressureIn, Mean Sea Level PressureIn, Min Sea Level PressureIn, Max VisibilityMiles, Mean VisibilityMiles, Min VisibilityMiles, Max Wind SpeedMPH, Mean Wind SpeedMPH, Max Gust SpeedMPH,PrecipitationIn, CloudCover, Events, WindDirDegrees
2011-11-1,70,52,33,39,34,31,100,62,23,30.31,30.24,30.20,10,10,10,12,4,15,0.00,0,,153
2011-11-2,70,55,40,40,36,33,79,55,31,30.30,30.19,30.08,10,10,10,18,7,23,0.00,0,,161
2011-11-3,58,51,44,54,44,35,100,85,47,30.03,29.91,29.83,10,7,2,21,10,29,0.31,7,Rain,221
2011-11-4,56,50,44,49,46,40,100,91,72,30.23,30.11,29.99,10,6,1,14,8,17,0.00,7,,341
2011-11-5,67,50,32,46,40,33,100,82,44,30.26,30.20,30.13,10,5,0,12,3,15,0.00,0,Fog,127
2011-11-6,65,55,45,42,39,33,71,58,43,30.33,30.26,30.17,10,10,10,20,9,24,0.00,0,,164
2011-11-7,73,60,46,54,50,43,89,71,53,30.31,30.24,30.17,10,10,10,15,6,21,0.00,2,,159
2011-11-8,75,64,52,53,50,47,89,68,46,30.18,30.08,29.97,10,10,10,24,9,30,0.00,1,,168
2011-11-9,68,52,36,61,48,33,93,74,55,30.20,30.00,29.86,10,8,2,28,13,36,0.14,5,Rain,249
2011-11-10,52,40,28,34,24,16,100,64,28,30.21,30.18,30.13,10,10,10,26,7,33,0.00,0,,289
2011-11-11,59,42,24,32,26,21,92,60,28,30.22,30.11,30.04,10,10,10,18,7,23,0.00,0,,198
2011-11-12,62,51,39,39,34,30,65,51,36,30.14,30.06,29.96,10,10,10,23,14,35,0.00,0,,193
2011-11-13,73,65,57,55,50,38,67,55,43,29.95,29.87,29.79,10,10,10,35,19,45,0.00,6,,197
2011-11-14,76,69,62,61,58,55,73,63,53,29.87,29.82,29.76,10,10,10,30,16,40,0.01,4,Rain,214
2011-11-15,62,58,54,58,56,54,100,94,87,29.94,29.87,29.80,10,4,0,15,5,18,2.06,8,Fog-Rain,127
2011-11-16,58,49,40,57,47,27,100,73,45,30.18,29.90,29.76,10,7,1,22,11,29,2.15,8,Rain-Thunderstorm,6
2011-11-17,48,38,28,32,24,17,85,57,29,30.40,30.33,30.20,10,10,10,18,7,22,0.00,2,,338
2011-11-18,57,41,25,28,24,18,100,61,22,30.43,30.28,30.18,10,10,10,14,6,18,0.00,0,,157
2011-11-19,68,55,41,54,42,27,78,62,45,30.18,30.12,30.04,10,10,10,26,12,35,0.00,1,,184
2011-11-20,64,61,58,64,59,55,100,86,72,30.18,30.15,30.09,10,4,1,16,7,22,0.72,8,Rain-Thunderstorm,195
2011-11-21,65,63,60,64,62,60,100,97,93,30.22,30.12,30.04,10,5,0,30,5,36,1.33,8,Fog-Rain-Thunderstorm,169
2011-11-22,66,57,48,63,59,46,100,89,78,30.06,29.92,29.75,10,7,2,23,12,36,0.47,8,Rain,201
2011-11-23,49,47,44,46,44,42,93,90,86,30.35,30.22,30.05,10,8,3,18,6,24,T,8,Rain,333
2011-11-24,60,49,38,45,42,37,100,77,53,30.42,30.35,30.29,10,6,2,7,2,10,0.00,5,,207
2011-11-25,65,51,36,42,37,34,92,64,36,30.29,30.20,30.11,10,10,10,16,6,22,0.00,0,,167
2011-11-26,72,61,49,56,49,41,77,62,47,30.14,30.02,29.86,10,10,3,29,11,35,0.05,5,Rain,169
2011-11-27,61,49,36,58,44,35,100,95,89,30.03,29.95,29.82,10,7,2,21,10,25,1.59,8,Rain,323
2011-11-28,41,38,35,40,37,33,100,96,92,29.99,29.76,29.66,10,6,2,21,11,26,0.62,8,Rain,315
2011-11-29,40,37,34,37,35,32,96,88,79,30.06,29.86,29.68,10,9,3,18,10,26,0.03,8,Rain-Snow,263
2011-11-30,45,36,26,32,27,24,92,69,45,30.25,30.15,30.05,10,10,10,14,4,17,0.00,3,,312